Погода в Дейском

Россия / Кабардино-Балкарская Республика     43°28′38″N   44°09′48″E
темп.,
°C
ветер,
м/с
пор.,
м/с
влажн.,
%
обл.,
%
осадки,
мм/ч
давл.,
гПа
погр.,
м
22 апреля, чт
чт2200:00+12всв1274100 0.0 1021107
03:00+12ссв1281100 0.1 102162
06:00+12вюв1284100 0.0 102175
09:00+13св3373100 0.1 1022430
12:00+15св545878 0.0 10221016
15:00+14всв5458100 0.0 10211019
18:00+12всв3567100 0.0 1022420
21:00+10вюв2387100 1.6 1022201
23 апреля, пт
пт2300:00+10ссз1193100 2.1 1022124
03:00+9зюз2397100 10.4 1022225
06:00+9юз2397100 6.2 1024183
09:00+11зюз2488100 10.9 1025332
12:00+16сз33535 0.4 10231465
15:00+17с33480 0.4 10221366
18:00+16юв22595 0.0 102219
21:00+12юв22655 0.0 102119
24 апреля, сб
сб2400:00+10ююв227298 0.0 102013
03:00+10юз1170100 0.0 101910
06:00+10ю1174100 0.0 102018
09:00+14в1358100 0.0 1019586
12:00+19всв334710 0.0 10181328
15:00+20св43466 0.0 10171579
18:00+17ссв356219 0.0 1018109
21:00+15всв1158100 0.0 101912
25 апреля, вс
вс2500:00+14юз1165100 0.0 101911
03:00+13зюз126996 0.0 101917
06:00+11зсз238272 0.0 102099
09:00+14с227194 0.0 1020696
12:00+17ссв3358100 0.0 10181360
15:00+17всв1256100 0.0 10161232
18:00+17ссз2266100 0.0 101650
21:00+14с3675100 0.0 1017322
26 апреля, пн
пн2600:00+11сз4576100 0.0 1017346
03:00+11сз2377100 0.0 1016291
06:00+10ссз2280100 0.0 1016283
09:00+11в2379100 0.0 1015436
12:00+13вюв1368100 0.0 1014801
15:00+15с3364100 0.0 1012768
18:00+12ссз3580100 0.0 1013471
21:00+10сз4798100 6.1 1017410